Regional Weather Roundup
Issued by NWS Charleston, SC

Current Version | Previous Version | Graphics & Text | Print | Product List | Glossary On
Versions: 1 2 3 4 5 6 7 8 9 10 11 12 13 14 15 16 17 18 19 20 21 22 23 24 25 26 27 28 29 30 31 32 33 34 35 36 37 38 39 40 41 42 43 44 45 46 47 48 49 50
000 ASUS42 KCHS 091912 RWRCHS REGIONAL WEATHER ROUNDUP NATIONAL WEATHER SERVICE CHARLESTON SC 200 PM EST FRI DEC 09 2016 NOTE: "FAIR" INDICATES FEW OR NO CLOUDS BELOW 12,000 FEET WITH NO SIGNIFICANT WEATHER AND/OR OBSTRUCTIONS TO VISIBILITY. NOT ALL STATIONS ARE QUALITY CONTROLLED. USE DATA WITH CAUTION... ESPECIALLY DEWPOINT OBSERVATIONS. SCZ027-030-031-034>040-042>050-092000- ...SOUTHEAST SOUTH CAROLINA... CITY SKY/WX TMP DP RH WIND PRES REMARKS N CHARLESTON SUNNY 50 18 28 N12 30.36F WATERFRONT PRK N/A 48 26 42 N9 30.36F MOUNT PLEASANT NOT AVBL JOHNS ISLAND FAIR 50 21 32 N9 30.36F PINOPOLIS N/A 45 25 45 N8 30.30F MONCKS CORNER FAIR 46 18 31 N7 30.37F SUMMERVILLE FAIR 48 23 37 N5 30.38F BEAUFORT MCAS SUNNY 52 19 27 N13 30.36F BEAUFORT ARPT FAIR 50 21 32 NW8 30.36F HILTON HEAD IS SUNNY 54 23 30 N7 30.36F WALTERBORO CLEAR 50 18 27 N7 30.38F ALLENDALE FAIR 48 16 27 N9 30.37F ...SOUTHERN MIDLANDS AND PEE DEE... CITY SKY/WX TMP DP RH WIND PRES REMARKS GEORGETOWN NOT AVBL KINGSTREE FAIR 45 19 36 NW10 30.37F ORANGEBURG SUNNY 47 16 29 NW8 30.37F BARNWELL NOT AVBL AIKEN FAIR 45 16 31 N9 30.40F MANNING FAIR 45 18 33 N12 30.38F COLUMBIA SUNNY 48 18 30 VRB6 30.38F SUMTER SUNNY 46 16 30 N7 30.35F FLORENCE SUNNY 45 17 32 N13 30.37F MYRTLE BEACH SUNNY 46 19 34 N12 30.38F N MYRTLE BEACH SUNNY 46 21 37 NW8 30.35F $$ GAZ063-065-086>088-099>101-113>116-118-119-134>141-150-092000- ...SOUTHEAST GEORGIA... CITY SKY/WX TMP DP RH WIND PRES REMARKS SAVANNAH ARPT SUNNY 53 18 25 MISG 30.36F HUNTER AAF SUNNY 54 27 35 NW8 30.33F FORT STEWART SUNNY 53 20 26 N3 30.34F STATESBORO SUNNY 51 24 34 N6 30.38S SYLVANIA CLEAR N/A N/A N/A N3 30.38F CLAXTON FAIR 51 24 34 N8 30.38S ...CSRA...CENTRAL AND FAR SOUTHEAST GEORGIA... CITY SKY/WX TMP DP RH WIND PRES REMARKS THOMSON SUNNY 48 22 36 CALM 30.44S AUGUSTA-BUSH SUNNY 50 15 24 NE8 30.39F AUGUSTA-DANIEL SUNNY 48 14 25 MISG 30.39F SWAINSBORO FAIR 50 21 32 NE5 30.39S VIDALIA SUNNY 52 28 40 NE6 30.38S EASTMAN FAIR 50 -18 5 N3 30.41F HAZLEHURST FAIR 51 22 31 NW6 30.37S ALMA SUNNY 51 20 29 NW6 30.36F WAYCROSS SUNNY 56 27 33 NW3 30.36F JESUP FAIR 54 30 40 NW7 30.35F BAXLEY FAIR 52 27 37 N3 30.36F BRUNSWICK SUNNY 55 28 35 NE6 30.35F SAINT SIMONS SUNNY 55 20 25 N10 30.34F $$ SCZ027-028-034-036>038-045-046-048>050-GAZ119-141-092000- ...LAKE AND SUPPLEMENTAL COASTAL OBSERVATIONS... STATION/POSITION TIME TEMP WIND PRES WAVE SWELL AIR SEA DIR/SP/G HT/PER HT/PER/DIR (UTC) (F) (DEG/KT/KT) (MB) (FT/S) (FT/S/D) WINYAH BAY 1745 44 330/ 7 1028.0 LAKE MURRAY 1820 43 270/ 4/ 6 1028.4F ACE BASIN NERRS 1745 49 330/ 4 1029.0 FORT PULASKI 1848 50 61 10/ 7/ 10 1027.9F SAPELO ISLAND 1800 53 20/ 7 1028.0 $$ ANZ835-935-AMZ111-154-330-350-352-354-370-450-454-472-092000- ...C-MAN AND BUOY OBSERVATIONS... STATION/POSITION TIME TEMP WIND PRES WAVE SWELL AIR SEA DIR/SP/G HT/PER HT/PER/DIR (UTC) (F) (DEG/KT/KT) (MB) (FT/S) (FT/S/D) BUOY 41004 1750 48 72 360/ 16/ 21 1027.3 5/ 7 2/ 40/11 BUOY 41008 1750 49 63 10/ 14/ 17 1028.1 4/ 6 2/ 40/11 FOLLY BEACH CMAN 1800 48 350/ 11/ 14 1029.1F CAPERS NEARSHORE 1808 47 60 360/ 10/ 14 1028.2F FRIPP NEARSHORE 1808 47 60 360/ 10/ 14 1028.3F STATION/POSITION TIME TEMP WIND PRES WAVE SWELL AIR SEA DIR/SP/G HT/PER HT/PER/DIR (UTC) (F) (DEG/KT/KT) (MB) (FT/S) (FT/S/D) 5E ST. MARYS GA 1830 65 N/A 4/ 5 FRYING PAN BUOY 1850 45 73 330/ 14/ 19 1027.3S 4/ 6 2/ 70/ 8 BUOY 41025 1850 42 76 350/ 16/ 21 1026.0R 4/ 9 3/ 50/ 9 CAPE LOOKOUT NC 1800 41 330/ 11/ 14 1026.7F BUOY 41002 1750 61 73 350/ 17/ 23 1022.6 6/ 7 2/ 60/12 BUOY 41010 NOT AVBL ST AUGUSTINE FL 1900 53 65 360/ 22/ 27 1027.4F $$

USA.gov is the U.S. government's official web portal to all federal, state and local government web resources and services.